This demonstration page uses our WeatherBlox Daily Observations layout. Learn more.

Left ArrowRight Arrow

44.8408, -93.29828

Hourly Observations for May 5, 2016

Temp ( °F °C ) Dew Point ( °F °C ) Humidity (%) Winds ( mph kmh ) Pressure ( in mb ) Visibility ( mi km ) Precip ( " mm )
12:53 am 00:53 Clear 51 10.6 28 -2.2 41 41 ESE 7 11 30.00 1016 10 16 0.00 0.00
1:53 am 01:53 Clear 50 10 27 -2.8 41 41 SE 8 13 30.01 1016 10 16 0.00 0.00
2:53 am 02:53 Clear 49 9.4 25 -3.9 39 39 Calm 30.02 1017 10 16 0.00 0.00
3:53 am 03:53 Clear 47 8.3 26 -3.3 44 44 SSE 6 9 30.02 1017 10 16 0.00 0.00
4:53 am 04:53 Mostly Cloudy 46 7.8 27 -2.8 47 47 Calm 30.03 1017 10 16 0.00 0.00
5:53 am 05:53 Mostly Cloudy 47 8.3 27 -2.8 46 46 SSE 3 6 30.04 1017 10 16 0.00 0.00
6:53 am 06:53 Mostly Cloudy 50 10 26 -3.3 39 39 Calm 30.06 1018 10 16 0.00 0.00
7:53 am 07:53 Mostly Cloudy 51 10.6 30 -1.1 44 44 Calm 30.08 1019 10 16 0.00 0.00
8:53 am 08:53 Mostly Sunny 55 12.8 30 -1.1 38 38 S 9 15 30.08 1019 10 16 0.00 0.00
9:53 am 09:53 Partly Cloudy 57 13.9 30 -1.1 36 36 SW 8 13 30.07 1018 10 16 0.00 0.00
10:53 am 10:53 Mostly Sunny 61 16.1 29 -1.7 30 30 SW 10 17 30.05 1018 10 16 0.00 0.00
11:53 am 11:53 Partly Cloudy 64 17.8 31 -0.6 29 29 SSW 9 15 30.03 1017 10 16 0.00 0.00
12:53 pm 12:53 Mostly Cloudy with Light Rain 64 17.8 36 2.2 35 35 SW 6 9 30.03 1017 9 14 0.00 0.03
1:53 pm 13:53 Partly Cloudy 70 21.1 34 1.1 27 27 SW 8 13 29.99 1016 10 16 0.00 0.03
2:53 pm 14:53 Mostly Sunny 73 22.8 31 -0.6 21 21 SW 12 19 29.98 1015 10 16 0.00 0.00
3:53 pm 15:53 Mostly Sunny 75 23.9 33 0.6 22 22 SW 10 17 29.95 1014 10 16 0.00 0.00
4:53 pm 16:53 Mostly Sunny 77 25 35 1.7 22 22 WSW 13 20 29.92 1013 10 16 0.00 0.00
5:53 pm 17:53 Sunny 78 25.6 35 1.7 21 21 W 13 20 29.90 1013 10 16 0.00 0.00
6:53 pm 18:53 Sunny 78 25.6 35 1.7 21 21 SW 7 11 29.88 1012 10 16 0.00 0.00
7:53 pm 19:53 Mostly Sunny 77 25 36 2.2 23 23 SW 5 7 29.87 1012 10 16 0.00 0.00
8:53 pm 20:53 Mostly Clear 74 23.3 38 3.3 27 27 SSW 7 11 29.87 1011 10 16 0.00 0.00
9:53 pm 21:53 Mostly Clear 71 21.7 39 3.9 31 31 SSW 6 9 29.87 1012 10 16 0.00 0.00
10:53 pm 22:53 Clear 69 20.6 40 4.4 35 35 SW 7 11 29.87 1012 10 16 0.00 0.00
11:53 pm 23:53 Clear 68 20 41 5 38 38 SW 8 13 29.87 1012 10 16 0.00 0.00

Powered by AerisWeather